Baraboo, WI

8:42 PM CDT on September 29, 2016 (GMT -0500)
Baraboo Wisconsin Dells

Weather History for KDLL - February, 2014

Change the Weather History Date:

Thursday, February 6, 2014

  Actual Average Record
Temperature  
Mean Temperature -1 °F -  
Max Temperature 5 °F 27 °F 53 °F (1991)
Min Temperature -7 °F 4 °F -27 °F (1977)
Degree Days  
Heating Degree Days 66    
Moisture  
Dew Point -10 °F    
Average Humidity 69    
Maximum Humidity 82    
Minimum Humidity 52    
Precipitation  
Precipitation 0.00 in - - ()
Sea Level Pressure  
Sea Level Pressure 30.32 in    
Wind  
Wind Speed 6 mph (West)    
Max Wind Speed 18 mph    
Max Gust Speed 24 mph    
Visibility 10 miles    
Events Snow    
Averages and records for this station are not official NWS values.
T = Trace of Precipitation, MM = Missing Value Source: NWS Daily Summary

Daily Weather History Graph

Daily Weather History Graph

Search for Another Location

Airport or City:

Trip Planner

Search our weather history database for the weather conditions in past years. The results will help you decide how hot, cold, wet, or windy it might be!

Date:

Astronomy

Feb. 06, 2014 Rise Set
Actual Time 7:09 AM CST 5:17 PM CST
Civil Twilight 6:39 AM CST 5:47 PM CST
Nautical Twilight 6:05 AM CST 6:21 PM CST
Astronomical Twilight 5:32 AM CST 6:54 PM CST
Moon 10:48 AM CST (2/6) 12:25 AM CST (2/6)
Length of Visible Light 11h 08m
Length of Day
10h 07m
Waxing Crescent, 49% of the Moon is Illuminated
Feb 6
Waxing Crescent
Feb 6
First Quarter
Feb 14
Full
Feb 22
Last Quarter
Mar 1
New

Hourly Weather History & Observations

Time (CST) Temp. Windchill Dew Point Humidity Pressure Visibility Wind Dir Wind Speed Gust Speed Precip Events Conditions
12:15 AM -1.1 °F -12.9 °F -7.8 °F 73% 30.39 in 10.0 mi WNW 5.8 mph - N/A   Clear
12:35 AM -1.7 °F -11.8 °F -8.0 °F 75% 30.39 in 10.0 mi WNW 4.6 mph - N/A   Clear
12:55 AM -2.2 °F - -8.1 °F 76% 30.38 in 10.0 mi Calm Calm - N/A   Clear
1:15 AM -2.9 °F - -8.0 °F 79% 30.38 in 10.0 mi Calm Calm - N/A   Clear
1:35 AM -3.3 °F -11.6 °F -8.5 °F 78% 30.37 in 10.0 mi West 3.5 mph - N/A   Clear
1:55 AM -4.2 °F - -9.4 °F 78% 30.37 in 10.0 mi Calm Calm - N/A   Clear
2:15 AM -4.2 °F - -8.9 °F 80% 30.37 in 10.0 mi Calm Calm - N/A   Clear
2:35 AM -4.0 °F -12.4 °F -8.7 °F 80% 30.37 in 10.0 mi WSW 3.5 mph - N/A   Clear
2:55 AM -4.4 °F - -9.0 °F 80% 30.37 in 10.0 mi Calm Calm - N/A   Clear
3:15 AM -5.3 °F -13.8 °F -9.6 °F 82% 30.36 in 10.0 mi West 3.5 mph - N/A   Clear
3:35 AM -5.1 °F - -9.6 °F 81% 30.36 in 10.0 mi Calm Calm - N/A   Clear
3:55 AM -5.3 °F - -9.8 °F 81% 30.36 in 10.0 mi Calm Calm - N/A   Clear
4:15 AM -6.0 °F - -10.5 °F 81% 30.36 in 10.0 mi Calm Calm - N/A   Clear
4:35 AM -6.7 °F - -11.2 °F 81% 30.36 in 10.0 mi Calm Calm - N/A   Clear
4:55 AM -6.3 °F - -10.7 °F 82% 30.36 in 10.0 mi Calm Calm - N/A   Clear
5:15 AM -6.5 °F -19.3 °F -10.8 °F 82% 30.36 in 10.0 mi West 5.8 mph - N/A   Clear
5:35 AM -6.7 °F -19.5 °F -11.2 °F 81% 30.35 in 10.0 mi West 5.8 mph - N/A Snow Light Snow
5:55 AM -6.7 °F -21.0 °F -11.2 °F 81% 30.35 in 10.0 mi West 6.9 mph - N/A Snow Light Snow
6:15 AM -6.9 °F -21.2 °F -11.2 °F 81% 30.35 in 10.0 mi West 6.9 mph - N/A   Clear
6:35 AM -7.1 °F -21.4 °F -11.6 °F 81% 30.35 in 10.0 mi West 6.9 mph - N/A   Clear
6:55 AM -7.6 °F -20.6 °F -12.1 °F 81% 30.35 in 10.0 mi West 5.8 mph - N/A   Clear
7:15 AM -7.8 °F -19.0 °F -12.5 °F 80% 30.35 in 10.0 mi West 4.6 mph - N/A   Clear
7:35 AM -7.6 °F -18.8 °F -12.3 °F 80% 30.35 in 10.0 mi West 4.6 mph - N/A   Clear
7:55 AM -7.4 °F -21.9 °F -12.3 °F 79% 30.35 in 10.0 mi West 6.9 mph - N/A   Clear
8:15 AM -6.7 °F -22.3 °F -11.9 °F 78% 30.35 in 10.0 mi West 8.1 mph - N/A   Clear
8:35 AM -6.0 °F -20.1 °F -11.2 °F 78% 30.36 in 10.0 mi West 6.9 mph - N/A   Clear
8:55 AM -5.1 °F -17.6 °F -11.2 °F 75% 30.36 in 10.0 mi West 5.8 mph - N/A   Clear
9:15 AM -4.7 °F -21.1 °F -11.0 °F 74% 30.36 in 10.0 mi WNW 9.2 mph - N/A   Clear
9:35 AM -4.0 °F -16.3 °F -10.7 °F 73% 30.36 in 10.0 mi West 5.8 mph - N/A   Clear
9:55 AM -3.1 °F -16.7 °F -10.1 °F 72% 30.36 in 10.0 mi West 6.9 mph - N/A   Clear
10:15 AM -2.6 °F -17.3 °F -10.3 °F 70% 30.36 in 10.0 mi West 8.1 mph - N/A   Clear
10:35 AM -1.8 °F -16.4 °F -10.1 °F 68% 30.36 in 10.0 mi West 8.1 mph - N/A   Clear
10:55 AM -0.8 °F -18.0 °F -10.1 °F 65% 30.36 in 10.0 mi West 11.5 mph 16.1 mph N/A   Clear
11:15 AM -0.4 °F -17.6 °F -9.9 °F 64% 30.36 in 10.0 mi West 11.5 mph - N/A   Clear
11:35 AM 0.5 °F -15.6 °F -9.6 °F 63% 30.35 in 10.0 mi West 10.4 mph 16.1 mph N/A   Clear
11:55 AM 1.4 °F -15.3 °F -9.4 °F 61% 30.34 in 10.0 mi West 11.5 mph 19.6 mph N/A   Clear
12:15 PM 1.9 °F -16.9 °F -9.4 °F 59% 30.32 in 10.0 mi West 15.0 mph - N/A   Clear
12:35 PM 2.8 °F -15.0 °F -8.5 °F 59% 30.32 in 10.0 mi West 13.8 mph - N/A   Clear
12:55 PM 3.9 °F -13.0 °F -8.5 °F 56% 30.31 in 10.0 mi West 12.7 mph 17.3 mph N/A   Clear
1:15 PM 4.3 °F -15.6 °F -8.5 °F 56% 30.30 in 10.0 mi WNW 18.4 mph 24.2 mph N/A   Clear
1:35 PM 5.0 °F -10.8 °F -8.5 °F 54% 30.30 in 10.0 mi West 11.5 mph - N/A   Clear
1:55 PM 5.0 °F -13.0 °F -8.5 °F 54% 30.29 in 10.0 mi West 15.0 mph 21.9 mph N/A   Clear
2:15 PM 5.5 °F -11.6 °F -8.0 °F 54% 30.29 in 10.0 mi WSW 13.8 mph - N/A   Clear
2:35 PM 5.9 °F -8.0 °F -8.1 °F 53% 30.28 in 10.0 mi West 9.2 mph - N/A   Clear
2:55 PM 5.7 °F -10.7 °F -8.1 °F 53% 30.28 in 10.0 mi WSW 12.7 mph 18.4 mph N/A   Clear
3:15 PM 5.7 °F -10.7 °F -8.5 °F 52% 30.27 in 10.0 mi West 12.7 mph 19.6 mph N/A   Clear
3:35 PM 5.7 °F -10.7 °F -8.5 °F 52% 30.27 in 10.0 mi West 12.7 mph 19.6 mph N/A   Clear
3:55 PM 5.5 °F -8.4 °F -8.5 °F 53% 30.26 in 10.0 mi West 9.2 mph - N/A   Clear
4:15 PM 4.8 °F -11.8 °F -8.9 °F 53% 30.26 in 10.0 mi West 12.7 mph - N/A   Clear
4:35 PM 4.1 °F -10.2 °F -8.9 °F 55% 30.26 in 10.0 mi West 9.2 mph - N/A   Clear
4:55 PM 3.4 °F -10.0 °F -9.2 °F 56% 30.25 in 10.0 mi West 8.1 mph - N/A   Clear
5:15 PM 2.5 °F -8.6 °F -9.4 °F 58% 30.25 in 10.0 mi West 5.8 mph - N/A   Clear
5:35 PM 1.9 °F -15.5 °F -9.6 °F 59% 30.25 in 10.0 mi West 12.7 mph 18.4 mph N/A   Clear
5:55 PM 1.4 °F -16.1 °F -10.3 °F 58% 30.25 in 10.0 mi West 12.7 mph - N/A   Clear
6:15 PM 0.5 °F -13.6 °F -10.7 °F 59% 30.27 in 10.0 mi West 8.1 mph - N/A   Clear
6:35 PM 0.1 °F -15.1 °F -10.7 °F 60% 30.27 in 10.0 mi West 9.2 mph - N/A   Clear
6:55 PM -0.2 °F -17.4 °F -10.7 °F 61% 30.27 in 10.0 mi West 11.5 mph - N/A   Clear
7:15 PM -0.4 °F -18.4 °F -10.7 °F 62% 30.27 in 10.0 mi West 12.7 mph 17.3 mph N/A   Clear
7:35 PM -0.9 °F -16.4 °F -10.8 °F 63% 30.27 in 10.0 mi WSW 9.2 mph - N/A   Clear
7:55 PM -1.5 °F -17.1 °F -11.0 °F 64% 30.27 in 10.0 mi WSW 9.2 mph - N/A   Clear
8:15 PM -1.7 °F -19.2 °F -11.0 °F 64% 30.27 in 10.0 mi WSW 11.5 mph - N/A   Clear
8:35 PM -1.8 °F -17.5 °F -10.8 °F 66% 30.27 in 10.0 mi WSW 9.2 mph - N/A   Clear
8:55 PM -2.2 °F -15.6 °F -10.8 °F 67% 30.27 in 10.0 mi WSW 6.9 mph - N/A   Clear
9:15 PM -2.4 °F -18.2 °F -10.5 °F 68% 30.27 in 10.0 mi WSW 9.2 mph - N/A   Clear
9:35 PM -2.7 °F -17.5 °F -10.3 °F 70% 30.27 in 10.0 mi WSW 8.1 mph - N/A   Clear
9:55 PM -2.9 °F -16.5 °F -10.3 °F 71% 30.27 in 10.0 mi WSW 6.9 mph - N/A   Clear
10:15 PM -2.4 °F -17.1 °F -9.8 °F 71% 30.27 in 10.0 mi WSW 8.1 mph - N/A   Clear
10:35 PM -2.4 °F -14.4 °F -9.6 °F 71% 30.27 in 10.0 mi WSW 5.8 mph - N/A   Clear
10:55 PM -3.1 °F -17.9 °F -9.8 °F 73% 30.26 in 10.0 mi WSW 8.1 mph - N/A   Clear
11:15 PM -3.5 °F -17.1 °F -9.9 °F 74% 30.26 in 10.0 mi WSW 6.9 mph - N/A   Clear
11:35 PM -3.3 °F -20.3 °F -9.4 °F 75% 30.26 in 10.0 mi WSW 10.4 mph - N/A   Clear
11:55 PM -2.6 °F -20.3 °F -8.5 °F 76% 30.25 in 10.0 mi WSW 11.5 mph 16.1 mph N/A   Clear